Regional Weather Roundup
Issued by NWS

Home | Current Version | Previous Version | Graphics & Text | Print | Product List | Glossary On
Versions: 1 2 3 4 5 6 7 8 9 10 11 12 13 14 15 16 17 18 19 20 21 22 23 24 25 26 27 28 29 30 31 32 33 34 35 36 37 38 39 40 41 42 43 44 45 46 47 48 49 50
000
ASUS43 KOAX 152210
RWRNE

WEATHER ROUNDUP FOR NEBRASKA
NATIONAL WEATHER SERVICE OMAHA NE
500 PM CDT TUE APR 15 2014

NOTES: SATELLITE DATA IS BEING USED TO AUGMENT CLOUD COVER ABOVE
       12000 FEET.
       "FAIR" INDICATES FEW OR NO CLOUDS BELOW 12,000 FEET WITH NO
       SIGNIFICANT WEATHER AND/OR OBSTRUCTIONS TO VISIBILITY.

  * THESE STATIONS DO NOT REPORT WEATHER SUCH AS RAIN...SNOW OR FOG.

NEZ001>004-019>022-054>056-152300-
NEBRASKA PANHANDLE

CITY           SKY/WX    TMP DP  RH WIND       PRES   REMARKS
SCOTTSBLUFF    SUNNY     65  28  24 W22G29    29.68F
ALLIANCE       SUNNY     64  18  17 W20G28    29.66F
CHADRON        SUNNY     64  20  18 W13       29.63F
KIMBALL        PTSUNNY   62  21  21 W17       29.72F
SIDNEY         SUNNY     65  17  15 SW17G25   29.73F
$$

NEZ057>060-069>072-079>082-152300-
SOUTHWEST NEBRASKA

CITY           SKY/WX    TMP DP  RH WIND       PRES   REMARKS
NORTH PLATTE   PTSUNNY   63  21  20 SW17G25   29.72F
IMPERIAL       PTSUNNY   66  19  16 W14       29.75F
LEXINGTON      CLOUDY    63  28  26 SW16      29.77F
MCCOOK         CLOUDY    67  23  19 SW15      29.77F
OGALLALA       MOSUNNY   67  17  14 SW12G25   29.71F
$$

NEZ005>010-023>029-035>040-094-152300-
NORTH CENTRAL NEBRASKA

CITY           SKY/WX    TMP DP  RH WIND       PRES   REMARKS
VALENTINE      PTSUNNY   68  18  14 W15G24    29.63F
AINSWORTH      PTSUNNY   64  25  22 S22       29.65F
BROKEN BOW     CLOUDY    61  27  27 S22G32    29.73F
O`NEILL        MOSUNNY   57  24  27 S28       29.75F
ORD            CLOUDY    57  28  33 S15       29.77F
THEDFORD       CLOUDY    66  24  20 SW18      29.69F
$$

NEZ041-046>049-061>064-073>077-083>087-152300-
SOUTH CENTRAL NEBRASKA

CITY           SKY/WX    TMP DP  RH WIND       PRES   REMARKS
GRAND ISLAND   PTSUNNY   62  26  25 S18G31    29.83F
AURORA         PTSUNNY   61  27  27 S16G23    29.84F
HASTINGS       PTSUNNY   63  19  18 S17G31    29.82F
HEBRON         MOSUNNY   61  16  17 S17G33    29.90F
HOLDREGE       CLOUDY    61  26  26 SW20G29   29.79F
KEARNEY *      PTSUNNY   61  27  27 S20G28    29.81F
YORK           PTSUNNY   59  27  29 S22G29    29.87F
$$

NEZ011>018-030>034-042>045-152300-
NORTHEAST NEBRASKA

CITY           SKY/WX    TMP DP  RH WIND       PRES   REMARKS
NORFOLK        MOSUNNY   53  31  42 S22G31    29.85F
ALBION         CLOUDY    54  28  36 S21G26    29.82F
BLAIR          MOSUNNY   50  25  36 S21G28    29.95F
COLUMBUS *     PTSUNNY   55  28  35 S20G28    29.89F
FREMONT        PTSUNNY   54  24  31 S15G21    29.94F
TEKAMAH        MOSUNNY   54  25  32 S22G30    29.95F
$$

NEZ050>053-065>068-078-088>093-152300-
SOUTHEAST NEBRASKA

CITY           SKY/WX    TMP DP  RH WIND       PRES   REMARKS
LINCOLN        PTSUNNY   58  23  26 S20G26    29.93F
OMAHA EPPLEY   PTSUNNY   52  23  32 S16       29.98F
BEATRICE       CLOUDY    60  19  20 S17G28    29.93F
FALLS CITY     MOSUNNY   54  28  36 S14G23    30.02F
NEBRASKA CITY  PTSUNNY   54  27  34 S16G25    29.99F
PLATTSMOUTH    PTSUNNY   53  22  30 S18G24    29.98F
$$

NEZ044-045-051>053-067-152300-
OMAHA AREA

CITY           SKY/WX    TMP DP  RH WIND       PRES   REMARKS
OMAHA EPPLEY   PTSUNNY   52  23  32 S16       29.98F
BLAIR          MOSUNNY   50  25  36 S21G28    29.95F
FREMONT        PTSUNNY   54  24  31 S15G21    29.94F
MILLARD        MOSUNNY   51  25  36 S15G22    29.96F
OFFUTT AFB     MOSUNNY   52  26  35 SE14G22   29.98F
PLATTSMOUTH    PTSUNNY   53  22  30 S18G24    29.98F
WAHOO          FAIR      54  23  30 S17G25    29.94F
$$



USA.gov is the U.S. government's official web portal to all federal, state and local government web resources and services.